Location: Chavannes
(47.1090°N, 0.2226°W)
Time: 14:09:04
(UTC+00:00)

Okean 1 Rocket - Pass Details

Date: 16 October 2021
Orbit: 607 x 633 km, 82.5° (Epoch: 06 December)

Event Time Altitude Azimuth Distance (km) Brightness Sun altitude
Rises 18:32:56 0° 204° (SSW) 2,853 6.8 -14.6°
Reaches altitude 10° 18:35:13 10° 211° (SSW) 1,954 6.0 -15.0°
Maximum altitude 18:39:21 45° 284° (WNW) 838 4.2 -15.7°
Drops below altitude 10° 18:43:33 10° 358° (N) 1,975 5.7 -16.4°
Sets 18:45:52 0° 4° (N) 2,887 6.5 -16.8°
